TimeEST,TemperatureF,Dew PointF,Humidity,Sea Level PressureIn,VisibilityMPH,Wind Direction,Wind SpeedMPH,Gust SpeedMPH,PrecipitationIn,Events,Conditions,WindDirDegrees,DateUTC
12:15 AM,37.4,37.4,100,30.34,3.0,Calm,Calm,-,N/A,,Overcast,0,2013-01-28 05:15:00
12:35 AM,37.4,37.4,100,30.34,2.5,Calm,Calm,-,N/A,Rain,Light Rain,0,2013-01-28 05:35:00
12:55 AM,37.4,37.4,100,30.34,2.5,Calm,Calm,-,N/A,,Overcast,0,2013-01-28 05:55:00
1:15 AM,37.4,37.4,100,30.34,5.0,Calm,Calm,-,N/A,,Overcast,0,2013-01-28 06:15:00
1:35 AM,37.4,37.4,100,30.34,3.0,Calm,Calm,-,N/A,,Overcast,0,2013-01-28 06:35:00
1:55 AM,37.4,37.4,100,30.34,5.0,Calm,Calm,-,N/A,,Overcast,0,2013-01-28 06:55:00
2:15 AM,37.4,37.4,100,30.34,5.0,Calm,Calm,-,N/A,,Overcast,0,2013-01-28 07:15:00
2:35 AM,37.4,37.4,100,30.34,2.5,Calm,Calm,-,N/A,,Overcast,0,2013-01-28 07:35:00
2:55 AM,37.4,37.4,100,30.34,3.0,Calm,Calm,-,N/A,,Overcast,0,2013-01-28 07:55:00
3:15 AM,37.4,37.4,100,30.35,2.5,Calm,Calm,-,N/A,,Overcast,0,2013-01-28 08:15:00
3:55 AM,37.4,37.4,100,30.34,2.5,Calm,Calm,-,N/A,,Overcast,0,2013-01-28 08:55:00
4:15 AM,37.4,37.4,100,30.34,1.8,Calm,Calm,-,N/A,,Overcast,0,2013-01-28 09:15:00
4:35 AM,37.4,37.4,100,30.35,2.5,Calm,Calm,-,N/A,,Overcast,0,2013-01-28 09:35:00
4:55 AM,37.4,37.4,100,30.35,1.0,Calm,Calm,-,N/A,,Overcast,0,2013-01-28 09:55:00
5:15 AM,37.4,37.4,100,30.35,0.2,Calm,Calm,-,N/A,Fog,Fog,0,2013-01-28 10:15:00
5:35 AM,37.4,37.4,100,30.36,0.5,Calm,Calm,-,N/A,Fog,Fog,0,2013-01-28 10:35:00
5:55 AM,37.4,37.4,100,30.36,1.2,Calm,Calm,-,N/A,,Overcast,0,2013-01-28 10:55:00
6:15 AM,37.4,37.4,100,30.36,2.5,Calm,Calm,-,N/A,,Overcast,0,2013-01-28 11:15:00
6:35 AM,37.4,37.4,100,30.36,2.0,Calm,Calm,-,N/A,,Overcast,0,2013-01-28 11:35:00
6:55 AM,37.4,37.4,100,30.36,2.5,Calm,Calm,-,N/A,,Overcast,0,2013-01-28 11:55:00
7:15 AM,37.4,37.4,100,30.37,3.0,Calm,Calm,-,N/A,,Overcast,0,2013-01-28 12:15:00
7:35 AM,37.4,37.4,100,30.37,3.0,Calm,Calm,-,N/A,,Overcast,0,2013-01-28 12:35:00
7:55 AM,37.4,37.4,100,30.37,3.0,Calm,Calm,-,N/A,,Overcast,0,2013-01-28 12:55:00
8:15 AM,37.4,37.4,100,30.37,2.5,Calm,Calm,-,N/A,,Overcast,0,2013-01-28 13:15:00
8:35 AM,39.2,39.2,100,30.37,4.0,Calm,Calm,-,N/A,,Overcast,0,2013-01-28 13:35:00
8:55 AM,39.2,39.2,100,30.37,4.0,Calm,Calm,-,N/A,,Overcast,0,2013-01-28 13:55:00
9:15 AM,39.2,39.2,100,30.37,5.0,Calm,Calm,-,N/A,,Overcast,0,2013-01-28 14:15:00
9:35 AM,41.0,39.2,93,30.36,6.0,Calm,Calm,-,N/A,,Overcast,0,2013-01-28 14:35:00
9:55 AM,41.0,39.2,93,30.36,7.0,Calm,Calm,-,N/A,,Overcast,0,2013-01-28 14:55:00
10:15 AM,41.0,39.2,93,30.36,8.0,Calm,Calm,-,N/A,,Overcast,0,2013-01-28 15:15:00
10:35 AM,41.0,39.2,93,30.36,9.0,Calm,Calm,-,N/A,,Overcast,0,2013-01-28 15:35:00
10:55 AM,42.8,39.2,87,30.36,10.0,Calm,Calm,-,N/A,,Overcast,0,2013-01-28 15:55:00
11:15 AM,44.6,37.4,76,30.35,10.0,Calm,Calm,-,N/A,,Overcast,0,2013-01-28 16:15:00
11:35 AM,44.6,37.4,76,30.34,10.0,Calm,Calm,-,N/A,,Overcast,0,2013-01-28 16:35:00
11:55 AM,44.6,37.4,76,30.34,10.0,Calm,Calm,-,N/A,,Overcast,0,2013-01-28 16:55:00
12:15 PM,44.6,35.6,71,30.33,10.0,Calm,Calm,-,N/A,,Overcast,0,2013-01-28 17:15:00
12:35 PM,44.6,37.4,76,30.32,10.0,Calm,Calm,-,N/A,,Overcast,0,2013-01-28 17:35:00
12:55 PM,44.6,37.4,76,30.30,10.0,Calm,Calm,-,N/A,,Overcast,0,2013-01-28 17:55:00
1:15 PM,46.4,37.4,71,30.29,10.0,Calm,Calm,-,N/A,,Overcast,0,2013-01-28 18:15:00
1:35 PM,46.4,37.4,71,30.28,10.0,Calm,Calm,-,N/A,,Overcast,0,2013-01-28 18:35:00
1:55 PM,46.4,39.2,76,30.28,10.0,Calm,Calm,-,N/A,,Overcast,0,2013-01-28 18:55:00
2:15 PM,46.4,39.2,76,30.27,10.0,Calm,Calm,-,N/A,,Overcast,0,2013-01-28 19:15:00
2:35 PM,46.4,41.0,81,30.27,10.0,Calm,Calm,-,N/A,,Overcast,0,2013-01-28 19:35:00
2:55 PM,46.4,41.0,81,30.26,9.0,Calm,Calm,-,N/A,,Overcast,0,2013-01-28 19:55:00
3:15 PM,46.4,41.0,81,30.26,10.0,Calm,Calm,-,N/A,,Overcast,0,2013-01-28 20:15:00
3:35 PM,48.2,41.0,76,30.26,10.0,Calm,Calm,-,N/A,,Overcast,0,2013-01-28 20:35:00
3:55 PM,48.2,41.0,76,30.25,10.0,Calm,Calm,-,N/A,,Overcast,0,2013-01-28 20:55:00
4:15 PM,48.2,42.8,82,30.26,10.0,Calm,Calm,-,N/A,,Overcast,0,2013-01-28 21:15:00
4:35 PM,48.2,44.6,87,30.25,3.0,Calm,Calm,-,0.01,Rain,Light Rain,0,2013-01-28 21:35:00
4:55 PM,46.4,46.4,100,30.25,8.0,Calm,Calm,-,0.01,,Overcast,0,2013-01-28 21:55:00
5:15 PM,46.4,46.4,100,30.25,6.0,Calm,Calm,-,N/A,,Overcast,0,2013-01-28 22:15:00
5:35 PM,46.4,46.4,100,30.25,5.0,East,3.5,-,N/A,,Overcast,80,2013-01-28 22:35:00
6:15 PM,46.4,46.4,100,30.25,3.0,Calm,Calm,-,N/A,Rain,Light Rain,0,2013-01-28 23:15:00
6:35 PM,46.4,46.4,100,30.26,5.0,Calm,Calm,-,0.01,Rain,Light Rain,0,2013-01-28 23:35:00
6:55 PM,44.6,44.6,100,30.26,1.2,Calm,Calm,-,0.04,Rain,Light Rain,0,2013-01-28 23:55:00
7:15 PM,44.6,44.6,100,30.26,3.0,Calm,Calm,-,N/A,Rain,Light Rain,0,2013-01-29 00:15:00
7:35 PM,44.6,44.6,100,30.26,4.0,Calm,Calm,-,N/A,,Overcast,0,2013-01-29 00:35:00
7:55 PM,44.6,44.6,100,30.26,3.0,Calm,Calm,-,N/A,,Overcast,0,2013-01-29 00:55:00
8:15 PM,44.6,44.6,100,30.26,3.0,Calm,Calm,-,N/A,,Overcast,0,2013-01-29 01:15:00
8:35 PM,44.6,44.6,100,30.26,3.0,Calm,Calm,-,N/A,,Overcast,0,2013-01-29 01:35:00
8:55 PM,44.6,44.6,100,30.26,1.5,Calm,Calm,-,N/A,,Overcast,0,2013-01-29 01:55:00
9:15 PM,44.6,44.6,100,30.26,2.0,Calm,Calm,-,N/A,Rain,Light Rain,0,2013-01-29 02:15:00
9:35 PM,44.6,44.6,100,30.26,3.0,Calm,Calm,-,0.02,Rain,Light Rain,0,2013-01-29 02:35:00
9:55 PM,44.6,44.6,100,30.26,2.5,Calm,Calm,-,0.04,Rain,Light Rain,0,2013-01-29 02:55:00
10:15 PM,44.6,44.6,100,30.26,2.5,Calm,Calm,-,N/A,,Overcast,0,2013-01-29 03:15:00
10:35 PM,44.6,44.6,100,30.26,2.5,Calm,Calm,-,N/A,,Overcast,0,2013-01-29 03:35:00
10:55 PM,44.6,44.6,100,30.26,2.5,Calm,Calm,-,N/A,,Overcast,0,2013-01-29 03:55:00
11:15 PM,44.6,44.6,100,30.25,1.5,Calm,Calm,-,N/A,Rain,Light Rain,0,2013-01-29 04:15:00
11:35 PM,44.6,44.6,100,30.26,1.8,Calm,Calm,-,N/A,,Overcast,0,2013-01-29 04:35:00
11:55 PM,44.6,44.6,100,30.26,1.2,Calm,Calm,-,N/A,,Overcast,0,2013-01-29 04:55:00